Effective Sunday, March 17, 2024, the National Weather Service National Data Buoy Center will discontinue its Dial-A-Buoy Interactive Voice Response system. For more information, see Service Change Notice 24-06 (PDF).

Station TAWM4 - Tawas Point, MI Image indicating link to RSS feed of recent meteorological observations for station TAWM4


Conditions at TAWM4 as of
(9:40 am EST)
1440 GMT on 02/24/2024:
     

Click on the graph icon in the table below to see a time series plot of the last five days of that observation.

5-day plot - Wind Direction Wind Direction (WDIR): N ( 10 deg true )
5-day plot - Wind Speed Wind Speed (WSPD): 4.1 kts
5-day plot - Wind Gust Wind Gust (GST): 9.9 kts
5-day plot - Atmospheric Pressure Atmospheric Pressure (PRES):30.05 in
5-day plot - Air Temperature Air Temperature (ATMP): 19.4 °F
5-day plot - Wind Chill Wind Chill (CHILL): 12.6 °F
5-day plot - Wind Speed at 10 Meters Wind Speed at 10 meters (WSPD10M): 3.9 kts
5-day plot - Wind Speed at 20 Meters Wind Speed at 20 meters (WSPD20M): 5.8 kts
5-day plot -  Wind Speed, Wind Gust and Atmospheric Pressure Combined plot of Wind Speed, Gust, and Air Pressure
Previous observations
TIME
(EST)
5-day plot - Wind Direction
WDIR
 
5-day plot - Wind Speed
WSPD
kts
5-day plot - Wind Gust
GST
kts
5-day plot - Wave Height
WVHT
ft
5-day plot - Dominant Wave Period
DPD
sec
5-day plot - Average Wave Period
APD
sec
5-day plot - Mean Wave Direction
MWD
 
5-day plot - Atmospheric Pressure
PRES
in
5-day plot - Pressure Tendency
PTDY
in
5-day plot - Air Temperature
ATMP
°F
5-day plot - Water Temperature
WTMP
°F
5-day plot - Dew Point
DEWP
°F
5-day plot - Salinity
SAL
psu
5-day plot - Visibility
VIS
nmi
5-day plot - Tide (above MLLW)
TIDE
ft
2024-02-24 09:30 am N 5.1 8.0----30.06- 19.0-----
2024-02-24 09:20 am N 5.1 8.0----30.05- 18.1-----
2024-02-24 09:10 amNNW 5.1 8.0----30.05- 17.2-----
2024-02-24 09:00 am N 4.1 9.9----30.05+0.06 17.1-----
2024-02-24 08:50 am N 7.0 9.9----30.05- 16.3-----
2024-02-24 08:40 amNNW 5.1 8.9----30.05- 16.0-----
2024-02-24 08:30 amNNW 7.0 11.1----30.06- 14.9-----
2024-02-24 08:20 amNNW 7.0 9.9----30.05- 14.2-----
2024-02-24 08:10 amNNW 6.0 12.0----30.04- 14.0-----
2024-02-24 08:00 amNNW 7.0 8.9----30.03+0.06 13.8-----
2024-02-24 07:50 amNNW 7.0 9.9----30.03- 13.8-----
2024-02-24 07:40 am N 6.0 9.9----30.03- 13.6-----
2024-02-24 07:30 amNNW 5.1 9.9----30.03- 13.8-----
2024-02-24 07:20 amNNW 6.0 11.1----30.03- 13.8-----
2024-02-24 07:10 amNNW 7.0 11.1----30.02- 14.0-----
2024-02-24 07:00 amNNW 6.0 11.1----30.01+0.05 14.2-----
2024-02-24 06:50 amNNW 6.0 11.1----30.01- 14.4-----
2024-02-24 06:40 amNNW 7.0 12.0----30.02- 14.4-----
2024-02-24 06:30 am N 7.0 11.1----30.02- 14.5-----
2024-02-24 06:20 am N 7.0 11.1----30.02- 14.7-----
2024-02-24 06:10 am N 7.0 12.0----30.00- 14.7-----
2024-02-24 06:00 am N 7.0 12.0----29.99+0.03 14.7-----
2024-02-24 05:50 am N 8.9 12.0----29.99- 14.7-----
2024-02-24 05:40 amNNW 8.0 13.0----30.00- 14.5-----
2024-02-24 05:30 amNNW 8.0 12.0----29.99- 14.7-----
2024-02-24 05:20 am N 7.0 9.9----29.98- 14.7-----
2024-02-24 05:10 am N 7.0 11.1----29.96- 14.9-----
2024-02-24 05:00 am N 7.0 11.1----29.97+0.02 15.1-----
2024-02-24 04:50 am N 8.0 12.0----29.97- 15.1-----
2024-02-24 04:40 am N 8.0 11.1----29.98- 15.3-----
2024-02-24 04:30 am N 7.0 11.1----29.97- 15.6-----
2024-02-24 04:20 amNNW 8.9 12.0----29.96- 15.6-----
2024-02-24 04:10 amNNW 7.0 11.1----29.95- 16.2-----
2024-02-24 04:00 am N 8.0 11.1----29.96+0.01 16.2-----
2024-02-24 03:50 am N 6.0 9.9----29.96- 16.3-----
2024-02-24 03:40 am N 7.0 12.0----29.96- 16.3-----
2024-02-24 03:30 am N 7.0 12.0----29.96- 16.3-----
2024-02-24 03:20 am N 6.0 9.9----29.95- 16.3-----
2024-02-24 03:10 am N 8.0 12.0----29.95- 16.3-----
2024-02-24 03:00 am N 7.0 12.0----29.96+0.02 16.3-----
2024-02-24 02:50 amNNW 8.0 11.1----29.96- 16.3-----
2024-02-24 02:40 am N 7.0 14.0----29.96- 16.3-----
2024-02-24 02:30 am N 8.0 12.0----29.95- 16.5-----
2024-02-24 02:20 am N 8.9 14.0----29.94- 16.3-----
2024-02-24 02:10 am N 7.0 13.0----29.94- 16.5-----
2024-02-24 02:00 am N 8.9 12.0----29.95+0.03 16.5-----
2024-02-24 01:50 am N 7.0 15.0----29.96- 16.9-----
2024-02-24 01:40 am N 11.1 14.0----29.95- 16.9-----
2024-02-24 01:30 am N 8.0 13.0----29.94- 17.2-----
2024-02-24 01:20 am N 9.9 15.0----29.93- 17.1-----
2024-02-24 01:10 amNNW 7.0 14.0----29.94- 17.2-----
2024-02-24 01:00 am N 8.9 13.0----29.95+0.04 16.9-----
2024-02-24 12:50 amNNW 8.9 15.0----29.95- 16.9-----
2024-02-24 12:40 amNNW 8.0 13.0----29.94- 16.9-----
2024-02-24 12:30 amNNW 8.0 13.0----29.93- 16.9-----
2024-02-24 12:20 amNNW 8.0 15.0----29.92- 17.1-----
2024-02-24 12:10 amNNW 9.9 13.0----29.93- 17.2-----
2024-02-24 12:00 amNNW 8.0 12.0----29.94+0.05 17.4-----
2024-02-23 11:50 pmNNW 8.9 14.0----29.93- 17.6-----
2024-02-23 11:40 pmNNW 8.0 14.0----29.92- 17.8-----
2024-02-23 11:30 pm N 9.9 14.0----29.91- 17.8-----
2024-02-23 11:20 pmNNW 7.0 13.0----29.91- 17.8-----
2024-02-23 11:10 pm N 8.0 12.0----29.92- 18.0-----
2024-02-23 11:00 pm N 8.0 14.0----29.92+0.07 18.0-----
2024-02-23 10:50 pm N 8.9 12.0----29.91- 18.0-----
2024-02-23 10:40 pm N 8.0 14.0----29.90- 18.0-----
2024-02-23 10:30 pmNNW 8.9 13.0----29.89- 18.0-----
2024-02-23 10:20 pm N 8.9 14.0----29.90- 18.1-----
2024-02-23 10:10 pmNNW 7.0 14.0----29.90- 18.3-----
2024-02-23 10:00 pm N 8.9 15.0----29.91+0.08 18.3-----
2024-02-23 09:50 pm N 8.0 14.0----29.90- 18.3-----
2024-02-23 09:40 pm N 8.0 14.0----29.89- 18.5-----
2024-02-23 09:30 pm N 9.9 14.0----29.88- 18.5-----
2024-02-23 09:20 pm N 8.9 15.0----29.89- 18.7-----
2024-02-23 09:10 pm N 9.9 15.0----29.89- 18.7-----
2024-02-23 09:00 pm N 12.0 17.1----29.89+0.11 18.5-----
2024-02-23 08:50 pm N 11.1 17.1----29.88- 18.7-----
2024-02-23 08:40 pm N 8.9 15.9----29.86- 18.9-----
2024-02-23 08:30 pm N 8.9 20.0----29.86- 19.0-----
2024-02-23 08:20 pm N 12.0 21.0----29.86- 19.2-----
2024-02-23 08:10 pm N 13.0 22.9----29.86- 19.2-----
2024-02-23 08:00 pm N 9.9 20.0----29.85+0.09 19.6-----
2024-02-23 07:50 pm N 12.0 22.0----29.84- 19.8-----
2024-02-23 07:40 pm N 13.0 19.0----29.83- 19.9-----
2024-02-23 07:30 pm N 11.1 21.0----29.82- 20.1-----
2024-02-23 07:20 pm N 8.9 15.9----29.82- 20.3-----
2024-02-23 07:10 pm N 9.9 18.1----29.83- 20.7-----
2024-02-23 07:00 pm N 13.0 20.0----29.83+0.10 21.0-----
2024-02-23 06:50 pmNNE 8.0 14.0----29.82- 21.9-----
2024-02-23 06:40 pm N 8.0 18.1----29.81- 22.1-----
2024-02-23 06:30 pm N 11.1 20.0----29.80- 22.5-----
2024-02-23 06:20 pm N 9.9 17.1----29.79- 23.0-----
2024-02-23 06:10 pm N 9.9 18.1----29.78- 23.4-----
2024-02-23 06:00 pm N 8.9 15.0----29.78+0.08 23.4-----
2024-02-23 05:50 pm N 8.0 15.9----29.78- 23.7-----
2024-02-23 05:40 pmNNE 9.9 15.9----29.78- 24.4-----
2024-02-23 05:30 pm N 11.1 15.0----29.78- 24.6-----
2024-02-23 05:20 pmNNE 7.0 15.9----29.78- 25.2-----
2024-02-23 05:10 pmNNE 7.0 15.9----29.76- 25.7-----
2024-02-23 05:00 pm NE 9.9 15.0----29.76+0.07 25.0-----
2024-02-23 04:50 pm NE 8.0 15.0----29.75- 25.0-----
2024-02-23 04:40 pm NE 8.9 21.0----29.75- 25.0-----
2024-02-23 04:30 pm NE 7.0 15.9----29.74- 25.2-----
2024-02-23 04:20 pm NE 9.9 17.1----29.74- 25.5-----
2024-02-23 04:10 pm NE 8.9 19.0----29.74- 26.2-----
2024-02-23 04:00 pm NE 12.0 21.0----29.73+0.06 27.1-----
2024-02-23 03:50 pm NE 8.9 22.9----29.72- 27.1-----
2024-02-23 03:40 pm NE 8.9 20.0----29.72- 27.1-----
2024-02-23 03:30 pm NE 9.9 20.0----29.71- 27.0-----
2024-02-23 03:20 pm NE 9.9 22.0----29.70- 27.3-----
2024-02-23 03:10 pmNNE 9.9 20.0----29.69- 28.0-----
2024-02-23 03:00 pm NE 11.1 22.0----29.70+0.04 28.2-----
2024-02-23 02:50 pmNNE 11.1 21.0----29.70- 28.6-----
2024-02-23 02:40 pm NE 11.1 19.0----29.70- 29.3-----
2024-02-23 02:30 pm NE 8.0 19.0----29.70- 30.0-----
2024-02-23 02:20 pmENE 8.0 20.0----29.70- 29.8-----
2024-02-23 02:10 pm NE 11.1 20.0----29.70- 29.3-----
2024-02-23 02:00 pm NE 12.0 21.0----29.69+0.03 29.3-----
2024-02-23 01:50 pm NE 9.9 20.0----29.68- 30.0-----
2024-02-23 01:40 pm NE 11.1 20.0----29.68- 30.4-----
2024-02-23 01:30 pm NE 11.1 21.0----29.68- 30.7-----
2024-02-23 01:20 pm NE 8.9 18.1----29.69- 33.3-----
2024-02-23 01:10 pm NE 7.0 12.0----29.68- 34.7-----
2024-02-23 01:00 pm N 8.0 12.0----29.67+0.03 36.5-----
2024-02-23 12:50 pmNNE 9.9 15.0----29.66- 36.3-----
2024-02-23 12:40 pm N 8.0 17.1----29.67- 36.7-----
2024-02-23 12:30 pm N 7.0 14.0----29.67- 36.3-----
2024-02-23 12:20 pmNNE 5.1 12.0----29.68- 35.8-----
2024-02-23 12:10 pm N 7.0 13.0----29.67- 35.6-----
2024-02-23 12:00 pm N 7.0 15.0----29.66+0.03 36.1-----
2024-02-23 11:50 am N 8.0 15.0----29.67- 36.9-----
2024-02-23 11:40 am N 5.1 13.0----29.67- 39.0-----
2024-02-23 11:30 am N 8.9 15.0----29.66- 37.0-----
2024-02-23 11:20 amNNW 8.0 15.0----29.65- 37.4-----
2024-02-23 11:10 am N 13.0 17.1----29.65- 36.9-----
2024-02-23 11:00 am N 9.9 20.0----29.66+0.06 36.3-----
2024-02-23 10:50 am N 11.1 17.1----29.65- 37.6-----
2024-02-23 10:40 amNNW 8.0 13.0----29.64- 37.9-----
2024-02-23 10:30 am N 9.9 13.0----29.63- 37.4-----
2024-02-23 10:20 am N 8.9 15.0----29.63- 37.2-----
2024-02-23 10:10 amNNW 7.0 13.0----29.64- 36.7-----
2024-02-23 10:00 amNNW 8.9 14.0----29.64+0.07 36.3-----
2024-02-23 09:50 amNNW 9.9 17.1----29.64- 35.8-----